Location: Prairie State College
(41.5244°N, 87.6382°W)
Time: 12:17:24
(UTC-06:00)

MSX - Visible Passes

Search period start: 25 January 2015 00:00
Search period end: 04 February 2015 00:00
Orbit: 895 x 906 km, 98.7° (Epoch: 22 January)

Date Brightness Start Highest point End Pass type
(mag) Time Alt. Az. Time Alt. Az. Time Alt. Az.
25 Jan 5.5 17:34:06 10° ENE 17:36:00 12° ENE 17:38:12 10° NE visible
25 Jan 3.7 19:14:48 41° SSE 19:16:53 76° ENE 19:22:41 10° N visible
25 Jan 6.4 20:57:49 14° WSW 20:59:22 15° W 21:02:24 10° NW visible
26 Jan 5.4 17:36:32 10° E 17:38:46 13° ENE 17:41:17 10° NNE visible
26 Jan 3.7 19:17:08 35° SSE 19:19:42 80° ENE 19:25:31 10° NNW visible
26 Jan 6.4 21:00:09 12° WSW 21:02:13 14° W 21:05:00 10° WNW visible
27 Jan 5.4 17:39:02 10° E 17:41:32 13° ENE 17:44:20 10° NNE visible
27 Jan 3.7 19:19:26 29° SSE 19:22:30 85° ENE 19:28:20 10° NNW visible
27 Jan 6.5 21:02:27 10° WSW 21:05:06 13° W 21:07:33 10° WNW visible
28 Jan 5.4 17:41:33 10° E 17:44:18 14° ENE 17:47:21 10° NNE visible
28 Jan 3.7 19:21:38 24° SSE 19:25:19 89° E 19:31:09 10° NNW visible
28 Jan 6.6 21:05:31 10° WSW 21:07:59 12° W 21:10:03 10° WNW visible
29 Jan 5.3 17:44:06 10° E 17:47:05 15° ENE 17:50:20 10° NNE visible
29 Jan 3.7 19:23:40 18° SSE 19:28:08 87° WSW 19:33:58 10° NNW visible
29 Jan 6.6 21:08:50 10° WSW 21:10:51 11° W 21:12:27 10° WNW visible
30 Jan 5.3 17:46:40 10° E 17:49:52 16° ENE 17:53:18 10° NNE visible
30 Jan 3.8 19:25:11 10° SSE 19:30:57 82° WSW 19:36:47 10° NNW visible
30 Jan 6.7 21:12:19 10° W 21:13:43 11° W 21:14:41 10° WNW visible
31 Jan 5.2 17:49:15 10° E 17:52:38 17° ENE 17:56:15 10° NNE visible
31 Jan 3.9 19:27:59 10° S 19:33:46 78° WSW 19:39:36 10° NNW visible
01 Feb 5.2 17:51:51 10° E 17:55:25 18° ENE 17:59:12 10° NNE visible
01 Feb 3.9 19:30:50 10° S 19:36:35 74° WSW 19:42:24 10° NNW visible
02 Feb 5.1 17:54:27 10° ESE 17:58:12 19° ENE 18:02:08 10° NNE visible
02 Feb 4.0 19:33:39 10° S 19:39:25 70° WSW 19:45:12 10° NNW visible
03 Feb 5.1 17:57:05 10° ESE 18:00:58 20° ENE 18:05:03 10° NNE visible
03 Feb 4.1 19:36:30 10° S 19:42:14 66° WSW 19:48:00 10° NNW visible
